Weather History for Mountain Home, ID

Change the Weather History Date:

Thursday, February 27, 2014

  Actual Average Record
Temperature  
Mean Temperature 43 °F 38 °F  
Max Temperature 51 °F 49 °F 65 °F (1980)
Min Temperature 35 °F 26 °F 1 °F (1962)
Degree Days  
Heating Degree Days 22 27  
Month to date heating degree days 690 815  
Cooling Degree Days 0 0  
Month to date cooling degree days 0 0  
Moisture  
Dew Point 41 °F    
Average Humidity 91    
Maximum Humidity 100    
Minimum Humidity 60    
Precipitation  
Precipitation 0.01 in 0.04 in 0.36 in (1916)
Month to date precipitation 0.54 0.83  
Sea Level Pressure  
Sea Level Pressure 29.69 in    
Wind  
Wind Speed 9 mph (East)    
Max Wind Speed 15 mph    
Max Gust Speed -    
Visibility 10 miles    
Events Rain    
T = Trace of Precipitation, MM = Missing Value Source: NWS Daily Summary

Daily Weather History Graph

Daily Weather History Graph

Search for Another Location

Airport:

Trip Planner

Search our weather history database for the weather conditions in past years. The results will help you decide how hot, cold, wet, or windy it might be!

Date:

Astronomy

Feb. 27, 2014 Rise Set
Actual Time 7:22 AM MST 6:30 PM MST
Civil Twilight 6:54 AM MST 6:58 PM MST
Nautical Twilight 6:21 AM MST 7:31 PM MST
Astronomical Twilight 5:48 AM MST 8:04 PM MST
Moon 6:00 AM MST (2/27) 5:00 PM MST (2/27)
Length of Visible Light 12h 04m
Length of Day
11h 07m
Waning Crescent, 4% of the Moon is Illuminated
Feb 27
Waning Crescent
Mar 1
New
Mar 8
First Quarter
Mar 16
Full
Mar 23
Last Quarter

Hourly Weather History & Observations

Time (MST) Temp. Windchill Dew Point Humidity Pressure Visibility Wind Dir Wind Speed Gust Speed Precip Events Conditions
12:58 AM 39.2 °F 33.0 °F 37.4 °F 93% 29.73 in 10.0 mi ESE 9.2 mph - N/A   Clear
1:58 AM 44.1 °F 39.5 °F 35.8 °F 73% 29.70 in 10.0 mi East 8.1 mph - N/A   Overcast
2:58 AM 43.2 °F 39.7 °F 34.0 °F 70% 29.68 in 10.0 mi NE 5.8 mph - N/A   Overcast
3:58 AM 42.4 °F 35.0 °F 31.6 °F 66% 29.65 in 10.0 mi ESE 15.0 mph - N/A   Overcast
4:58 AM 43.7 °F 36.9 °F 30.9 °F 61% 29.63 in 10.0 mi ESE 13.8 mph - N/A   Mostly Cloudy
5:53 AM 42.8 °F 35.4 °F 32.0 °F 66% 29.63 in 10.0 mi SE 15.0 mph - N/A   Overcast
5:58 AM 43.2 °F 36.6 °F 32.2 °F 65% 29.62 in 10.0 mi SE 12.7 mph - N/A   Overcast
6:18 AM 42.8 °F 36.6 °F 32.0 °F 66% 29.63 in 10.0 mi SE 11.5 mph - N/A   Overcast
6:33 AM 42.8 °F 35.4 °F 32.0 °F 66% 29.63 in 10.0 mi SE 15.0 mph - N/A   Scattered Clouds
6:58 AM 43.5 °F 37.5 °F 30.4 °F 60% 29.64 in 10.0 mi SE 11.5 mph - N/A   Mostly Cloudy
7:58 AM 42.8 °F 35.4 °F 34.3 °F 72% 29.66 in 10.0 mi SE 15.0 mph - 0.00 in   Mostly Cloudy
8:18 AM 42.8 °F 35.8 °F 41.0 °F 93% 29.66 in 10.0 mi SE 13.8 mph - N/A Rain Light Rain
8:23 AM 42.8 °F 35.4 °F 42.8 °F 100% 29.66 in 10.0 mi ESE 15.0 mph - N/A Rain Light Rain
8:35 AM 42.8 °F 36.2 °F 42.8 °F 100% 29.65 in 10.0 mi East 12.7 mph - N/A   Mostly Cloudy
8:58 AM 42.6 °F 36.8 °F 42.6 °F 100% 29.67 in 10.0 mi ESE 10.4 mph - 0.00 in   Mostly Cloudy
9:36 AM 44.6 °F 38.4 °F 44.6 °F 100% 29.66 in 7.0 mi ESE 12.7 mph - N/A   Light Drizzle
9:43 AM 44.6 °F 39.2 °F 44.6 °F 100% 29.67 in 7.0 mi SE 10.4 mph - N/A   Light Drizzle
9:58 AM 43.9 °F 37.9 °F 43.7 °F 99% 29.68 in 10.0 mi ESE 11.5 mph - 0.00 in   Light Drizzle
10:58 AM 43.9 °F 41.3 °F 43.9 °F 100% 29.69 in 10.0 mi SE 4.6 mph - 0.00 in   Light Drizzle
11:48 AM 46.4 °F 45.2 °F 46.4 °F 100% 29.68 in 10.0 mi ENE 3.5 mph - N/A   Overcast
11:58 AM 45.9 °F - 45.9 °F 100% 29.69 in 10.0 mi Variable 2.3 mph - 0.01 in   Overcast
12:23 PM 46.4 °F 44.3 °F 46.4 °F 100% 29.69 in 10.0 mi Variable 4.6 mph - N/A   Overcast
12:58 PM 48.2 °F - 48.2 °F 100% 29.70 in 10.0 mi NNW 8.1 mph - N/A   Overcast
1:58 PM 47.7 °F - 47.7 °F 100% 29.70 in 10.0 mi North 9.2 mph - 0.00 in   Light Drizzle
2:58 PM 48.2 °F - 48.2 °F 100% 29.69 in 10.0 mi North 9.2 mph - 0.00 in Rain Light Rain
3:48 PM 50.0 °F - 46.4 °F 87% 29.67 in 10.0 mi Calm Calm - N/A   Light Drizzle
3:58 PM 50.0 °F - 48.2 °F 94% 29.68 in 10.0 mi North 2.3 mph - 0.00 in   Mostly Cloudy
4:18 PM 50.0 °F - 48.2 °F 94% 29.67 in 10.0 mi NW 2.3 mph - N/A   Overcast
4:23 PM 50.0 °F - 48.2 °F 94% 29.68 in 10.0 mi NW 4.6 mph - N/A   Overcast
4:33 PM 50.0 °F - 48.2 °F 94% 29.67 in 10.0 mi NNW 6.9 mph - N/A   Overcast
4:58 PM 50.5 °F - 47.5 °F 89% 29.68 in 10.0 mi North 3.5 mph - N/A   Overcast
5:58 PM 49.5 °F - 49.1 °F 99% 29.70 in 10.0 mi East 2.3 mph - N/A   Mostly Cloudy
6:58 PM 46.0 °F 43.9 °F 46.0 °F 100% 29.71 in 10.0 mi NE 4.6 mph - N/A   Mostly Cloudy
7:58 PM 43.2 °F 40.5 °F 43.2 °F 100% 29.73 in 10.0 mi ENE 4.6 mph - N/A   Clear
8:58 PM 40.6 °F 37.5 °F 40.6 °F 100% 29.74 in 10.0 mi ESE 4.6 mph - N/A   Mostly Cloudy
9:08 PM 39.2 °F 35.9 °F 39.2 °F 100% 29.72 in 10.0 mi ESE 4.6 mph - N/A   Overcast
9:13 PM 39.2 °F 35.9 °F 39.2 °F 100% 29.72 in 10.0 mi ESE 4.6 mph - N/A   Overcast
9:18 PM 39.2 °F 35.9 °F 39.2 °F 100% 29.72 in 10.0 mi ESE 4.6 mph - N/A   Overcast
9:28 PM 39.2 °F 37.0 °F 39.2 °F 100% 29.72 in 10.0 mi East 3.5 mph - N/A   Overcast
9:33 PM 39.2 °F 35.9 °F 39.2 °F 100% 29.73 in 10.0 mi ENE 4.6 mph - N/A   Mostly Cloudy
9:58 PM 39.6 °F 36.3 °F 39.6 °F 100% 29.75 in 10.0 mi East 4.6 mph - N/A   Mostly Cloudy
10:03 PM 39.2 °F 35.9 °F 39.2 °F 100% 29.73 in 10.0 mi East 4.6 mph - N/A   Scattered Clouds
10:58 PM 37.4 °F 34.9 °F 37.4 °F 100% 29.77 in 10.0 mi ENE 3.5 mph - N/A   Scattered Clouds
11:58 PM 36.5 °F 33.9 °F 36.5 °F 100% 29.76 in 10.0 mi East 3.5 mph - N/A   Mostly Cloudy